Location: Rooftop Observatory
(39.0308°N, 87.1711°W)
Time: 19:01:53
(UTC-05:00)

Daily predictions for brighter satellites

Satellite Brightness Start Highest point End
(mag) Time Altitude Azimuth Time Altitude Azimuth Time Altitude Azimuth
Meteor 1-13 Rocket 4.4 20:30:58 10° S 20:36:54 84° E 20:42:48 10° N
Cosmos 405 4.0 20:34:42 10° NNE 20:37:54 30° ENE 20:41:03 10° SE
COSMOS 2487 4.4 20:38:43 10° SE 20:40:25 13° E 20:42:09 10° ENE
USA 186 2.0 20:37:17 10° S 20:40:26 68° W 20:43:30 10° NNW
Cosmos 1666 2.8 20:37:18 10° N 20:41:00 57° E 20:44:41 10° SSE
CZ-2D R/B 4.2 20:37:56 10° S 20:41:38 49° W 20:45:21 10° NNW
CENTAUR R/B 3.5 20:34:09 10° NW 20:42:05 67° WSW 20:50:25 10° SSE
Cosmos 1656 Rocket 4.2 20:36:43 10° NNW 20:42:05 60° WSW 20:47:31 10° S
Cosmos 1975 4.4 20:39:11 10° NNW 20:42:58 37° W 20:46:45 10° SSW
Meteor 2-9 Rocket 4.4 20:40:12 10° N 20:45:38 56° ENE 20:51:11 10° SSE
ERS-1 Rocket 4.0 20:41:56 10° SE 20:46:16 30° ENE 20:50:37 10° N
SJ-11-01 4.4 20:42:14 10° SSE 20:46:50 60° ENE 20:51:29 10° N
Cosmos 1833 Rocket 4.0 20:44:16 10° SE 20:48:01 19° E 20:51:47 10° ENE
Cosmos 1371 Rocket 4.5 20:43:55 10° N 20:49:03 47° ENE 20:54:06 10° SE
ISS -1.6 20:46:42 10° W 20:49:38 29° NNW 20:52:35 10° NNE
OAO 2 Rocket 3.6 20:45:08 10° W 20:49:54 50° S 20:54:39 10° ESE
Cosmos 1238 Rocket 4.2 20:43:25 10° S 20:50:03 62° E 20:56:21 10° NNE
Cosmos 2074 Rocket 4.1 20:50:20 10° N 20:56:37 88° W 21:02:54 10° S
Aureole 3 Rocket 3.7 20:52:39 10° S 20:58:46 77° W 21:03:07 10° N
Cosmos 2184 Rocket 4.1 20:55:55 10° N 21:02:16 83° W 21:08:31 10° S
Meteor 1-29 2.8 20:59:27 10° NNE 21:02:50 83° E 21:06:11 10° S
ASTEX 1 3.5 21:01:11 10° SSE 21:06:00 60° E 21:10:50 10° N
Cosmos 1939 Rocket 2.8 21:02:23 10° S 21:06:15 83° W 21:10:08 10° NNW
Cosmos 1437 Rocket 3.3 21:02:42 10° N 21:06:23 42° ENE 21:09:19 15° SE
Meteor 2-4 Rocket 3.9 21:01:07 10° SSW 21:06:47 81° W 21:12:39 10° N
Intercosmos 24 3.9 21:04:58 10° N 21:08:33 50° E 21:11:24 15° SSE
Cosmos 1515 4.3 21:09:19 14° SSE 21:12:14 36° E 21:15:44 10° NNE
Resurs 01 Rocket 4.0 21:11:04 10° SW 21:14:29 22° W 21:17:55 10° NW
PSLV R/B 3.6 21:12:18 10° W 21:15:18 44° SSW 21:16:58 22° SE
Hubble Space Telescope 2.7 21:15:25 10° SSW 21:17:02 13° SSE 21:17:02 13° SSE
Cosmos 1980 Rocket 4.1 21:18:37 10° NNE 21:22:09 17° NE 21:25:41 10° E
Helios 1A 4.1 21:19:32 10° S 21:23:32 42° W 21:27:33 10° NNW
ARGOS 3.8 21:20:51 18° SE 21:24:30 41° ENE 21:29:33 10° N
Nadezhda 1 Rocket 4.4 21:19:19 10° SSW 21:25:39 67° W 21:32:02 10° N
Cosmos 1624 Rocket 4.0 21:26:20 10° NNW 21:31:39 86° WSW 21:35:41 18° SSE
Cosmos 2228 3.7 21:29:59 10° N 21:34:00 38° ENE 21:35:49 25° SE
Cosmos 921 Rocket 3.1 21:30:09 10° N 21:34:36 63° ENE 21:37:02 25° SSE
Tiangong 2 2.4 21:33:43 10° WNW 21:36:46 39° N 21:39:21 13° ENE
Helios 1B rocket 4.5 21:35:28 10° N 21:39:05 30° WNW 21:42:42 10° SW
MetOp-B 4.1 21:36:14 21° SSE 21:39:55 71° ENE 21:45:16 10° N
NOAA 11 4.1 21:35:59 19° SSE 21:39:57 79° ENE 21:45:24 10° N
H-2A R/B 2.9 21:38:01 22° ESE 21:40:23 34° ENE 21:44:55 10° N
SL-8 Rocket 4.4 21:34:32 10° N 21:40:34 47° ENE 21:44:11 23° SE
Cosmos 2154 Rocket 4.3 21:40:23 10° NNW 21:46:43 69° W 21:52:35 12° S
CZ-3A R/B 1.5 21:46:12 10° WSW 21:49:55 41° NW 21:51:31 10° NNE
Cosmos 2056 Rocket 3.8 21:46:13 10° NNW 21:51:17 60° WSW 21:54:41 20° S
Cosmos 1892 Rocket 3.7 21:48:59 13° SSW 21:52:59 73° W 21:57:24 10° N
Lacrosse 5 rocket 4.3 21:52:54 10° N 21:54:26 11° NNE 21:55:58 10° NE
Terra 3.2 21:55:30 21° E 21:56:56 25° ENE 22:00:47 10° NNE
YAOGAN 6 4.4 21:54:21 12° SSW 21:56:59 26° W 22:00:01 10° NW
Meteor 1-4 Rocket 3.0 21:54:32 10° N 21:57:55 40° ENE 21:58:16 39° E
Cosmos 1602 Rocket 4.1 21:57:24 35° ESE 21:58:12 38° E 22:02:13 10° NNE
Cosmos 2082 Rocket 2.1 21:52:49 10° SSW 21:58:29 84° ESE 22:04:10 10° NNE
Cosmos 2278 3.8 21:56:25 10° NNW 22:02:07 75° WSW 22:05:10 28° S
Cosmos 1606 Rocket 4.5 22:00:51 10° NNW 22:04:56 43° W 22:07:45 18° SSW
Cosmos 1420 Rocket 4.4 22:02:06 10° N 22:07:12 48° ENE 22:08:59 34° ESE
SPOT 5 2.6 22:07:20 36° S 22:09:04 78° WSW 22:13:27 10° NNW
Cosmos 1048 Rocket 4.2 22:08:12 37° SE 22:09:31 46° ESE 22:14:27 10° NNE
DMSP B5D2-2 4.4 22:05:25 10° NNE 22:10:31 47° E 22:11:57 37° SE
SL-24 DEB 4.4 22:12:28 29° SSW 22:14:44 67° W 22:19:23 10° N
COSMOS 2487 4.3 22:12:19 10° SW 22:15:32 31° WNW 22:18:46 10° N
Cosmos 1656 3.6 22:10:46 10° NNW 22:16:15 81° WSW 22:18:28 38° SSE
Cosmos 1697 Rocket 2.7 22:11:58 10° NNW 22:17:36 73° ENE 22:19:38 40° SE
Meteor 1-22 Rocket 4.2 22:12:21 10° N 22:17:38 60° E 22:19:21 40° SE
SL-08 RB Rocket 3.7 22:16:19 40° S 22:17:52 76° WSW 22:22:22 10° NNW
Cosmos 1809 Rocket 4.4 22:12:41 10° N 22:18:47 74° E 22:21:21 37° SSE
Lacrosse 5 4.0 22:25:30 13° ENE 22:25:30 13° ENE 22:26:11 10° ENE
Cosmos 2369 4.3 22:17:10 10° NNW 22:22:41 50° WSW 22:25:22 28° SSW
Cosmos 1452 Rocket 3.5 22:17:51 10° NNW 22:23:08 79° WSW 22:25:00 41° S
USA 245 4.2 22:24:43 26° WNW 22:24:43 26° WNW 22:26:10 10° NW
CARTOSAT-1 4.0 22:24:03 42° E 22:24:32 44° ENE 22:28:39 10° N
Timation 2 Rocket 3.9 22:20:08 17° SSW 22:25:14 80° ESE 22:31:25 10° NNE
SL-08 R/B 4.4 22:20:28 10° N 22:26:36 80° E 22:29:03 39° SSE
ISS -0.3 22:26:11 10° NNW 22:26:59 11° N 22:27:47 10° N
SL-16 R/B 4.0 22:23:14 10° N 22:27:18 20° NE 22:29:33 16° E
Cosmos 2218 Rocket 3.9 22:24:46 10° N 22:30:57 83° W 22:33:41 36° S
Cosmos 1833 Rocket 3.3 22:25:55 10° SW 22:31:25 56° WNW 22:36:58 10° NNE
SPOT 1/Viking Rocket 3.7 22:30:08 39° S 22:32:02 69° WSW 22:37:11 10° NNW
IGS 5A 3.8 22:32:35 50° E 22:32:45 50° ENE 22:36:47 10° N
Cosmos 2058 Rocket 4.4 22:29:49 10° NNW 22:33:52 35° W 22:35:48 24° SW
Meteor 2-16 Rocket 4.5 22:30:14 10° N 22:36:21 65° E 22:38:10 45° SE
SL-24 R/B - RUBIN 2 4.5 22:33:06 23° SSW 22:37:25 73° ESE 22:43:58 10° NE
ATLAS CENTAUR R/B 3.5 22:36:07 10° NNE 22:37:54 13° NE 22:38:30 13° NE
Cosmos 1842 3.7 22:38:51 49° ENE 22:38:51 49° ENE 22:42:07 10° NNE
SL-19 R/B 4.1 22:34:09 10° NNE 22:39:24 61° ESE 22:40:12 54° SE
Cosmos 1271 Rocket 3.2 22:37:05 10° N 22:40:35 52° ENE 22:40:35 52° ENE
H-2A R/B 2.0 22:48:48 74° SE 22:49:06 80° ENE 22:53:39 10° N
Cosmos 1544 3.9 22:46:50 10° N 22:49:33 43° NNE 22:49:33 43° NNE
Cosmos 1812 Rocket 3.5 22:48:45 10° N 22:53:14 78° W 22:53:29 74° SW
Nadezhda 3 Rocket 4.0 22:53:47 51° SSE 22:55:23 70° E 23:01:43 10° NNE
USA 229 DEB 3.8 22:50:08 10° NNW 22:57:21 83° ENE 22:59:43 47° SE
USA 229 3.8 22:50:14 10° NNW 22:57:26 82° ENE 22:59:49 47° SE
Cosmos 158 Rocket 4.4 22:58:44 35° SW 23:00:54 63° WNW 23:06:16 10° NNE
Cosmos 2360 Rocket 4.3 23:01:34 10° NNE 23:05:03 16° NE 23:07:19 13° ENE
Cosmos 1980 Rocket 2.1 23:01:08 10° NNW 23:06:48 75° WSW 23:07:36 64° SSW
CZ-4 R/B 3.8 23:02:48 10° NNE 23:07:51 90° ESE 23:08:17 76° SSW
Cosmos 1821 Rocket 4.2 23:04:38 10° N 23:10:52 58° E 23:11:53 52° ESE
Cosmos 1953 3.0 23:07:55 10° N 23:11:08 49° NNE 23:11:08 49° NNE
Tiangong 2 3.7 23:10:34 10° WNW 23:11:33 18° WNW 23:11:33 18° WNW
Cosmos 1953 Rocket 4.0 23:14:33 54° NE 23:14:33 54° NE 23:18:13 10° NNE
Cosmos 1825 Rocket 3.7 23:14:31 68° N 23:14:31 68° N 23:18:19 10° N
CZ-4B R/B 3.4 23:09:43 10° NNE 23:14:52 87° ESE 23:15:13 79° S
Cosmos 494 Rocket 4.2 23:17:01 55° ENE 23:17:01 55° ENE 23:21:30 10° NNE
Cosmos 2322 Rocket 2.7 23:13:12 10° NNW 23:18:44 48° ENE 23:19:28 46° E
H-2A R/B 3.5 23:18:38 23° WSW 23:19:50 25° W 23:24:00 10° NW
ALOS 2 4.4 23:27:53 22° ENE 23:27:53 22° ENE 23:30:52 10° NNE
Cosmos 1605 Rocket 4.4 23:27:48 10° N 23:33:37 45° ENE 23:34:06 44° E
Cosmos 1470 4.0 23:29:41 10° N 23:32:23 38° NNE 23:32:23 38° NNE
Terra 3.0 23:34:23 32° W 23:34:30 32° W 23:38:47 10° NNW
Lacrosse 5 rocket 2.7 23:30:35 10° NNW 23:34:55 37° NE 23:35:12 36° NE
CZ-2C R/B 3.6 23:30:07 10° NNE 23:34:30 35° E 23:34:30 35° E
Cosmos 1707 4.5 23:39:38 28° NNE 23:39:38 28° NNE 23:41:39 10° NNE
Cosmos-2242 4.0 23:34:10 10° N 23:37:18 42° NNE 23:37:18 42° NNE
Cosmos 1535 Rocket 4.3 23:32:43 10° N 23:38:52 90° W 23:39:28 75° S
BREEZE-M DEB (TANK) 3.9 23:51:05 31° N 23:51:05 31° N 23:55:41 10° NE
